date,time,SUV Intensity [MED/Hr],UV Index,Daily total [MED],Since Last [MED]
22/06/2023,23:58:07,-0.000,0.0,13.539,13.539
22/06/2023,23:59:06,-0.000,0.0,13.539,0.0
23/06/2023,00:00:06,0.000,0.0,0.0,-13.539
23/06/2023,00:01:07,0.000,0.0,0.0,0.0
23/06/2023,00:02:07,0.000,0.0,0.0,0.0
23/06/2023,00:03:07,0.000,0.0,0.0,0.0
23/06/2023,00:04:07,-0.000,0.0,0.0,0.0
23/06/2023,00:05:06,0.000,0.0,0.0,0.0
23/06/2023,00:06:06,-0.001,0.0,0.0,0.0
23/06/2023,00:07:07,0.000,0.0,0.0,0.0
23/06/2023,00:08:07,0.000,0.0,0.0,0.0
23/06/2023,00:09:07,0.000,0.0,0.0,0.0
23/06/2023,00:10:06,0.000,0.0,0.0,0.0
23/06/2023,00:11:07,0.000,0.0,0.0,0.0
23/06/2023,00:12:07,0.001,0.0,0.0,0.0
23/06/2023,00:13:07,0.000,0.0,0.0,0.0
23/06/2023,00:14:07,0.000,0.0,0.0,0.0
23/06/2023,00:15:06,-0.000,0.0,0.0,0.0
23/06/2023,00:16:07,-0.000,0.0,0.0,0.0
23/06/2023,00:17:06,-0.000,0.0,0.0,0.0
23/06/2023,00:18:07,0.000,0.0,0.0,0.0
23/06/2023,00:19:06,-0.001,0.0,0.0,0.0
23/06/2023,00:20:29,0.000,0.0,0.0,0.0
23/06/2023,00:22:07,0.000,0.0,0.0,0.0
23/06/2023,00:23:06,0.000,0.0,0.0,0.0
23/06/2023,00:24:06,0.000,0.0,0.0,0.0
23/06/2023,00:25:08,0.000,0.0,0.0,0.0
23/06/2023,00:26:07,0.000,0.0,0.0,0.0
23/06/2023,00:27:07,0.000,0.0,0.0,0.0
23/06/2023,00:28:06,0.001,0.0,0.0,0.0
23/06/2023,00:29:07,0.001,0.0,0.0,0.0
23/06/2023,00:30:07,-0.001,0.0,0.0,0.0
23/06/2023,00:31:06,0.000,0.0,0.0,0.0
23/06/2023,00:32:06,-0.000,0.0,0.0,0.0
23/06/2023,00:33:07,0.000,0.0,0.0,0.0
23/06/2023,00:34:07,0.000,0.0,0.0,0.0
23/06/2023,00:35:07,0.000,0.0,0.0,0.0
23/06/2023,00:36:06,0.000,0.0,0.0,0.0
23/06/2023,00:37:07,0.001,0.0,0.0,0.0
23/06/2023,00:38:07,0.001,0.0,0.0,0.0
23/06/2023,00:39:07,0.001,0.0,0.0,0.0
23/06/2023,00:40:06,0.000,0.0,0.0,0.0
23/06/2023,00:41:07,0.000,0.0,0.0,0.0
23/06/2023,00:42:06,0.000,0.0,0.0,0.0
23/06/2023,00:43:07,0.000,0.0,0.0,0.0
23/06/2023,00:44:07,0.000,0.0,0.0,0.0
23/06/2023,00:45:07,0.001,0.0,0.0,0.0
23/06/2023,00:46:06,0.000,0.0,0.0,0.0
23/06/2023,00:47:07,0.001,0.0,0.0,0.0
23/06/2023,00:48:07,0.000,0.0,0.0,0.0
23/06/2023,00:49:06,0.000,0.0,0.0,0.0
23/06/2023,00:50:07,0.000,0.0,0.0,0.0
23/06/2023,00:51:06,0.000,0.0,0.0,0.0
23/06/2023,00:52:06,0.001,0.0,0.0,0.0
23/06/2023,00:53:07,0.000,0.0,0.0,0.0
23/06/2023,00:54:07,0.000,0.0,0.0,0.0
23/06/2023,00:55:06,0.000,0.0,0.0,0.0
23/06/2023,00:56:07,0.000,0.0,0.0,0.0
23/06/2023,00:57:06,0.000,0.0,0.0,0.0
23/06/2023,00:58:07,-0.001,0.0,0.0,0.0
23/06/2023,00:59:07,0.000,0.0,0.0,0.0
23/06/2023,01:00:07,0.001,0.0,0.0,0.0
23/06/2023,01:01:06,0.000,0.0,0.0,0.0
23/06/2023,01:02:07,0.000,0.0,0.0,0.0
23/06/2023,01:03:07,0.000,0.0,0.0,0.0
23/06/2023,01:04:07,0.000,0.0,0.0,0.0
23/06/2023,01:05:06,0.000,0.0,0.0,0.0
23/06/2023,01:06:07,0.000,0.0,0.0,0.0
23/06/2023,01:07:06,0.000,0.0,0.0,0.0
23/06/2023,01:08:07,0.000,0.0,0.0,0.0
23/06/2023,01:09:07,0.000,0.0,0.0,0.0
23/06/2023,01:10:06,-0.000,0.0,0.0,0.0
23/06/2023,01:11:07,0.000,0.0,0.0,0.0
23/06/2023,01:12:07,0.001,0.0,0.0,0.0
23/06/2023,01:13:06,0.000,0.0,0.0,0.0
23/06/2023,01:14:07,0.001,0.0,0.0,0.0
23/06/2023,01:15:06,0.001,0.0,0.0,0.0
23/06/2023,01:16:06,0.001,0.0,0.0,0.0
23/06/2023,01:17:07,0.000,0.0,0.0,0.0
23/06/2023,01:18:06,0.000,0.0,0.0,0.0
23/06/2023,01:19:07,0.000,0.0,0.0,0.0
23/06/2023,01:20:06,0.001,0.0,0.0,0.0
23/06/2023,01:21:07,0.000,0.0,0.0,0.0
23/06/2023,01:22:06,0.000,0.0,0.0,0.0
23/06/2023,01:23:07,0.000,0.0,0.0,0.0
23/06/2023,01:24:07,0.001,0.0,0.0,0.0
23/06/2023,01:25:06,0.000,0.0,0.0,0.0
23/06/2023,01:26:07,0.001,0.0,0.0,0.0
23/06/2023,01:27:07,0.001,0.0,0.0,0.0
23/06/2023,01:28:07,0.001,0.0,0.0,0.0
23/06/2023,01:29:07,0.000,0.0,0.0,0.0
23/06/2023,01:30:06,0.001,0.0,0.0,0.0
23/06/2023,01:31:06,-0.000,0.0,0.0,0.0
23/06/2023,01:32:06,0.001,0.0,0.0,0.0
23/06/2023,01:33:07,0.001,0.0,0.0,0.0
23/06/2023,01:34:06,0.001,0.0,0.0,0.0
23/06/2023,01:35:07,0.001,0.0,0.0,0.0
23/06/2023,01:36:06,0.001,0.0,0.0,0.0
23/06/2023,01:37:07,0.001,0.0,0.0,0.0
23/06/2023,01:38:07,0.001,0.0,0.0,0.0
23/06/2023,01:39:07,0.001,0.0,0.0,0.0
23/06/2023,01:40:07,0.001,0.0,0.0,0.0
23/06/2023,01:41:06,0.000,0.0,0.0,0.0
23/06/2023,01:42:07,0.001,0.0,0.0,0.0
23/06/2023,01:43:07,0.001,0.0,0.0,0.0
23/06/2023,01:44:07,0.001,0.0,0.0,0.0
23/06/2023,01:45:06,0.001,0.0,0.0,0.0
23/06/2023,01:46:07,0.001,0.0,0.0,0.0
23/06/2023,01:47:06,0.000,0.0,0.0,0.0
23/06/2023,01:48:07,0.001,0.0,0.0,0.0
23/06/2023,01:49:07,0.001,0.0,0.0,0.0
23/06/2023,01:50:07,0.001,0.0,0.0,0.0
23/06/2023,01:51:07,0.001,0.0,0.0,0.0
23/06/2023,01:52:07,0.000,0.0,0.0,0.0
23/06/2023,01:53:07,0.000,0.0,0.0,0.0
23/06/2023,01:54:07,0.001,0.0,0.0,0.0
23/06/2023,01:55:07,0.001,0.0,0.0,0.0
23/06/2023,01:56:07,0.001,0.0,0.0,0.0
23/06/2023,01:57:06,0.001,0.0,0.0,0.0
23/06/2023,01:58:07,-0.000,0.0,0.0,0.0
23/06/2023,01:59:06,0.001,0.0,0.0,0.0
23/06/2023,02:00:07,0.001,0.0,0.0,0.0
23/06/2023,02:01:07,0.001,0.0,0.0,0.0
23/06/2023,02:02:06,0.001,0.0,0.0,0.0
23/06/2023,02:03:07,0.001,0.0,0.0,0.0
23/06/2023,02:04:07,0.001,0.0,0.0,0.0
23/06/2023,02:05:07,0.001,0.0,0.0,0.0
23/06/2023,02:06:07,0.001,0.0,0.0,0.0
23/06/2023,02:07:06,-0.000,0.0,0.0,0.0
23/06/2023,02:08:07,0.001,0.0,0.0,0.0
23/06/2023,02:09:07,0.001,0.0,0.0,0.0
23/06/2023,02:10:07,0.001,0.0,0.0,0.0
23/06/2023,02:11:07,0.001,0.0,0.0,0.0
23/06/2023,02:12:07,0.001,0.0,0.0,0.0
23/06/2023,02:13:06,0.001,0.0,0.0,0.0
23/06/2023,02:14:07,0.001,0.0,0.0,0.0
23/06/2023,02:15:07,0.001,0.0,0.0,0.0
23/06/2023,02:16:06,0.001,0.0,0.0,0.0
23/06/2023,02:17:07,0.001,0.0,0.0,0.0
23/06/2023,02:18:07,0.001,0.0,0.0,0.0
23/06/2023,02:19:07,0.001,0.0,0.0,0.0
23/06/2023,02:20:07,0.001,0.0,0.0,0.0
23/06/2023,02:21:06,0.001,0.0,0.0,0.0
23/06/2023,02:22:07,0.001,0.0,0.0,0.0
23/06/2023,02:23:07,0.001,0.0,0.0,0.0
23/06/2023,02:24:07,0.001,0.0,0.0,0.0
23/06/2023,02:25:07,0.001,0.0,0.0,0.0
23/06/2023,02:26:06,0.001,0.0,0.0,0.0
23/06/2023,02:27:07,0.001,0.0,0.0,0.0
23/06/2023,02:28:07,0.001,0.0,0.0,0.0
23/06/2023,02:29:07,0.001,0.0,0.0,0.0
23/06/2023,02:30:06,0.001,0.0,0.0,0.0
23/06/2023,02:31:06,0.001,0.0,0.0,0.0
23/06/2023,02:32:06,0.001,0.0,0.0,0.0
23/06/2023,02:33:06,0.001,0.0,0.0,0.0
23/06/2023,02:34:07,0.001,0.0,0.0,0.0
23/06/2023,02:35:07,0.001,0.0,0.0,0.0
23/06/2023,02:36:07,0.001,0.0,0.0,0.0
23/06/2023,02:37:07,0.001,0.0,0.0,0.0
23/06/2023,02:38:07,0.001,0.0,0.0,0.0
23/06/2023,02:39:07,0.001,0.0,0.0,0.0
23/06/2023,02:40:06,0.001,0.0,0.0,0.0
23/06/2023,02:41:07,0.001,0.0,0.0,0.0
23/06/2023,02:42:07,0.001,0.0,0.0,0.0
23/06/2023,02:43:07,0.001,0.0,0.0,0.0
23/06/2023,02:44:07,0.001,0.0,0.0,0.0
23/06/2023,02:45:06,0.001,0.0,0.0,0.0
23/06/2023,02:46:07,0.001,0.0,0.0,0.0
23/06/2023,02:47:07,0.001,0.0,0.0,0.0
23/06/2023,02:48:07,0.001,0.0,0.0,0.0
23/06/2023,02:49:07,0.001,0.0,0.0,0.0
23/06/2023,02:50:07,0.001,0.0,0.0,0.0
23/06/2023,02:51:06,0.001,0.0,0.0,0.0
23/06/2023,02:52:08,0.001,0.0,0.0,0.0
23/06/2023,02:53:08,0.001,0.0,0.0,0.0
23/06/2023,02:54:07,0.001,0.0,0.0,0.0
23/06/2023,02:55:07,0.001,0.0,0.0,0.0
23/06/2023,02:56:07,0.001,0.0,0.0,0.0
23/06/2023,02:57:07,0.001,0.0,0.0,0.0
23/06/2023,02:58:07,0.001,0.0,0.0,0.0
23/06/2023,02:59:06,0.001,0.0,0.0,0.0
23/06/2023,03:00:07,0.001,0.0,0.0,0.0
23/06/2023,03:01:07,0.001,0.0,0.0,0.0
23/06/2023,03:02:07,0.001,0.0,0.0,0.0
23/06/2023,03:03:06,0.001,0.0,0.0,0.0
23/06/2023,03:04:07,0.001,0.0,0.0,0.0
23/06/2023,03:05:06,0.001,0.0,0.0,0.0
23/06/2023,03:06:07,0.001,0.0,0.0,0.0
23/06/2023,03:07:07,0.001,0.0,0.0,0.0
23/06/2023,03:08:06,0.001,0.0,0.0,0.0
23/06/2023,03:09:07,0.001,0.0,0.0,0.0
23/06/2023,03:10:07,0.001,0.0,0.0,0.0
23/06/2023,03:11:07,0.001,0.0,0.0,0.0
23/06/2023,03:12:07,0.001,0.0,0.0,0.0
23/06/2023,03:13:06,0.001,0.0,0.0,0.0
23/06/2023,03:14:07,0.001,0.0,0.0,0.0
23/06/2023,03:15:07,0.002,0.0,0.0,0.0
23/06/2023,03:16:07,0.001,0.0,0.0,0.0
23/06/2023,03:17:07,0.001,0.0,0.0,0.0
23/06/2023,03:18:07,0.001,0.0,0.0,0.0
23/06/2023,03:19:07,0.001,0.0,0.0,0.0
23/06/2023,03:20:07,0.001,0.0,0.0,0.0
23/06/2023,03:21:07,0.001,0.0,0.0,0.0
23/06/2023,03:22:07,0.001,0.0,0.0,0.0
23/06/2023,03:23:07,0.001,0.0,0.0,0.0
23/06/2023,03:24:08,0.001,0.0,0.0,0.0
23/06/2023,03:25:07,0.001,0.0,0.0,0.0
23/06/2023,03:26:07,0.001,0.0,0.0,0.0
23/06/2023,03:27:07,0.002,0.0,0.0,0.0
23/06/2023,03:28:07,0.002,0.0,0.0,0.0
23/06/2023,03:29:06,0.002,0.0,0.0,0.0
23/06/2023,03:30:07,0.002,0.0,0.0,0.0
23/06/2023,03:31:07,0.002,0.0,0.0,0.0
23/06/2023,03:32:07,0.001,0.0,0.0,0.0
23/06/2023,03:33:07,0.003,0.0,0.0,0.0
23/06/2023,03:34:07,0.002,0.0,0.0,0.0
23/06/2023,03:35:06,0.002,0.0,0.0,0.0
23/06/2023,03:36:07,0.003,0.0,0.0,0.0
23/06/2023,03:37:07,0.002,0.0,0.0,0.0
23/06/2023,03:38:07,0.003,0.0,0.0,0.0
23/06/2023,03:39:07,0.003,0.0,0.0,0.0
23/06/2023,03:40:07,0.002,0.0,0.0,0.0
23/06/2023,03:41:07,0.002,0.0,0.0,0.0
23/06/2023,03:42:05,0.004,0.0,0.0,0.0
23/06/2023,03:43:07,0.003,0.0,0.0,0.0
23/06/2023,03:44:07,0.003,0.0,0.0,0.0
23/06/2023,03:45:06,0.003,0.0,0.0,0.0
23/06/2023,03:46:07,0.004,0.0,0.0,0.0
23/06/2023,03:47:07,0.003,0.0,0.0,0.0
23/06/2023,03:48:06,0.004,0.0,0.0,0.0
23/06/2023,03:49:07,0.003,0.0,0.0,0.0
23/06/2023,03:50:06,0.004,0.0,0.0,0.0
23/06/2023,03:51:07,0.005,0.0,0.0,0.0
23/06/2023,03:52:06,0.004,0.0,0.0,0.0
23/06/2023,03:53:06,0.004,0.0,0.0,0.0
23/06/2023,03:54:07,0.004,0.0,0.0,0.0
23/06/2023,03:55:07,0.005,0.0,0.0,0.0
23/06/2023,03:56:07,0.005,0.0,0.0,0.0
23/06/2023,03:57:07,0.005,0.0,0.0,0.0
23/06/2023,03:58:07,0.005,0.0,0.0,0.0
23/06/2023,03:59:07,0.005,0.0,0.0,0.0
23/06/2023,04:00:06,0.005,0.0,0.0,0.0
23/06/2023,04:01:06,0.006,0.0,0.0,0.0
23/06/2023,04:02:07,0.006,0.0,0.0,0.0
23/06/2023,04:03:07,0.005,0.0,0.0,0.0
23/06/2023,04:04:07,0.006,0.0,0.0,0.0
23/06/2023,04:05:07,0.006,0.0,0.0,0.0
23/06/2023,04:06:06,0.007,0.0,0.0,0.0
23/06/2023,04:07:07,0.008,0.0,0.0,0.0
23/06/2023,04:08:07,0.007,0.0,0.001,0.001
23/06/2023,04:09:07,0.008,0.0,0.001,0.0
23/06/2023,04:10:07,0.008,0.0,0.001,0.0
23/06/2023,04:11:07,0.008,0.0,0.001,0.0
23/06/2023,04:12:07,0.008,0.0,0.001,0.0
23/06/2023,04:13:07,0.008,0.0,0.001,0.0
23/06/2023,04:14:07,0.009,0.0,0.001,0.0
23/06/2023,04:15:07,0.009,0.0,0.002,0.001
23/06/2023,04:16:07,0.009,0.0,0.002,0.0
23/06/2023,04:17:07,0.010,0.0,0.002,0.0
23/06/2023,04:18:07,0.009,0.0,0.002,0.0
23/06/2023,04:19:07,0.011,0.0,0.002,0.0
23/06/2023,04:20:07,0.012,0.0,0.002,0.0
23/06/2023,04:21:07,0.011,0.0,0.003,0.001
23/06/2023,04:22:07,0.012,0.0,0.003,0.0
23/06/2023,04:23:07,0.012,0.0,0.003,0.0
23/06/2023,04:24:07,0.012,0.0,0.003,0.0
23/06/2023,04:25:07,0.012,0.0,0.003,0.0
23/06/2023,04:26:07,0.013,0.0,0.004,0.001
23/06/2023,04:27:07,0.013,0.0,0.004,0.0
23/06/2023,04:28:07,0.014,0.0,0.004,0.0
23/06/2023,04:29:07,0.013,0.0,0.004,0.0
23/06/2023,04:30:07,0.015,0.0,0.004,0.0
23/06/2023,04:31:07,0.014,0.0,0.005,0.001
23/06/2023,04:32:06,0.016,0.0,0.005,0.0
23/06/2023,04:33:07,0.017,0.0,0.005,0.0
23/06/2023,04:34:07,0.017,0.0,0.005,0.0
23/06/2023,04:35:07,0.017,0.0,0.006,0.001
23/06/2023,04:36:07,0.018,0.0,0.006,0.0
23/06/2023,04:37:07,0.018,0.0,0.006,0.0
23/06/2023,04:38:07,0.019,0.0,0.007,0.001
23/06/2023,04:39:07,0.019,0.0,0.007,0.0
23/06/2023,04:40:07,0.021,0.0,0.007,0.0
23/06/2023,04:41:07,0.020,0.0,0.008,0.001
23/06/2023,04:42:07,0.021,0.0,0.008,0.0
23/06/2023,04:43:07,0.022,0.0,0.008,0.0
23/06/2023,04:44:07,0.022,0.0,0.009,0.001
23/06/2023,04:45:07,0.023,0.0,0.009,0.0
23/06/2023,04:46:07,0.023,0.0,0.009,0.0
23/06/2023,04:47:07,0.024,0.0,0.01,0.001
23/06/2023,04:48:07,0.024,0.0,0.01,0.0
23/06/2023,04:49:07,0.026,0.0,0.011,0.001
23/06/2023,04:50:07,0.026,0.0,0.011,0.0
23/06/2023,04:51:07,0.027,0.0,0.012,0.001
23/06/2023,04:52:07,0.027,0.0,0.012,0.0
23/06/2023,04:53:07,0.028,0.0,0.012,0.0
23/06/2023,04:54:07,0.029,0.0,0.013,0.001
23/06/2023,04:55:07,0.029,0.0,0.013,0.0
23/06/2023,04:56:07,0.030,0.0,0.014,0.001
23/06/2023,04:57:07,0.030,0.0,0.014,0.0
23/06/2023,04:58:07,0.031,0.0,0.015,0.001
23/06/2023,04:59:07,0.031,0.0,0.015,0.0
23/06/2023,05:00:07,0.032,0.0,0.016,0.001
23/06/2023,05:01:07,0.033,0.0,0.017,0.001
23/06/2023,05:02:07,0.033,0.0,0.017,0.0
23/06/2023,05:03:07,0.035,0.0,0.018,0.001
23/06/2023,05:04:07,0.035,0.0,0.018,0.0
23/06/2023,05:05:06,0.036,0.0,0.019,0.001
23/06/2023,05:06:07,0.037,0.0,0.019,0.0
23/06/2023,05:07:07,0.038,0.0,0.02,0.001
23/06/2023,05:08:07,0.038,0.0,0.021,0.001
23/06/2023,05:09:07,0.039,0.0,0.021,0.0
23/06/2023,05:10:07,0.040,0.0,0.022,0.001
23/06/2023,05:11:07,0.040,0.0,0.023,0.001
23/06/2023,05:12:07,0.043,0.0,0.023,0.0
23/06/2023,05:13:08,0.043,0.0,0.024,0.001
23/06/2023,05:14:07,0.044,0.0,0.025,0.001
23/06/2023,05:15:07,0.045,0.0,0.026,0.001
23/06/2023,05:16:07,0.047,0.0,0.026,0.0
23/06/2023,05:17:07,0.048,0.0,0.027,0.001
23/06/2023,05:18:07,0.050,0.0,0.028,0.001
23/06/2023,05:19:07,0.052,0.0,0.029,0.001
23/06/2023,05:20:07,0.054,0.0,0.03,0.001
23/06/2023,05:21:07,0.056,0.0,0.031,0.001
23/06/2023,05:22:08,0.057,0.0,0.031,0.0
23/06/2023,05:23:07,0.058,0.0,0.032,0.001
23/06/2023,05:24:07,0.059,0.0,0.033,0.001
23/06/2023,05:25:07,0.059,0.0,0.034,0.001
23/06/2023,05:26:07,0.060,0.0,0.035,0.001
23/06/2023,05:27:07,0.061,0.0,0.036,0.001
23/06/2023,05:28:07,0.063,0.0,0.037,0.001
23/06/2023,05:29:07,0.064,0.0,0.038,0.001
23/06/2023,05:30:07,0.065,0.0,0.04,0.002
23/06/2023,05:31:07,0.067,0.0,0.041,0.001
23/06/2023,05:32:07,0.071,0.0,0.042,0.001
23/06/2023,05:33:07,0.071,0.0,0.043,0.001
23/06/2023,05:34:07,0.073,0.0,0.044,0.001
23/06/2023,05:35:07,0.074,0.0,0.045,0.001
23/06/2023,05:36:07,0.076,0.0,0.047,0.002
23/06/2023,05:37:07,0.077,0.0,0.048,0.001
23/06/2023,05:38:07,0.079,0.0,0.049,0.001
23/06/2023,05:39:08,0.081,0.0,0.051,0.002
23/06/2023,05:40:07,0.083,0.0,0.052,0.001
23/06/2023,05:41:07,0.086,0.0,0.053,0.001
23/06/2023,05:42:07,0.088,0.0,0.055,0.002
23/06/2023,05:43:07,0.091,0.0,0.056,0.001
23/06/2023,05:44:07,0.093,0.0,0.058,0.002
23/06/2023,05:45:07,0.097,0.0,0.059,0.001
23/06/2023,05:46:07,0.098,0.0,0.061,0.002
23/06/2023,05:47:07,0.100,0.0,0.063,0.002
23/06/2023,05:48:07,0.102,0.0,0.064,0.001
23/06/2023,05:49:07,0.105,0.0,0.066,0.002
23/06/2023,05:50:07,0.108,0.0,0.068,0.002
23/06/2023,05:51:07,0.109,0.0,0.07,0.002
23/06/2023,05:52:07,0.113,0.0,0.071,0.001
23/06/2023,05:53:07,0.114,0.0,0.073,0.002
23/06/2023,05:54:07,0.117,0.0,0.075,0.002
23/06/2023,05:55:07,0.121,0.0,0.077,0.002
23/06/2023,05:56:07,0.122,0.0,0.079,0.002
23/06/2023,05:57:07,0.123,0.0,0.081,0.002
23/06/2023,05:58:07,0.123,0.0,0.083,0.002
23/06/2023,05:59:07,0.124,0.0,0.085,0.002
23/06/2023,06:00:07,0.127,0.0,0.088,0.003
23/06/2023,06:01:08,0.129,0.0,0.09,0.002
23/06/2023,06:02:07,0.129,0.0,0.092,0.002
23/06/2023,06:03:07,0.129,0.0,0.094,0.002
23/06/2023,06:04:07,0.132,0.0,0.096,0.002
23/06/2023,06:05:07,0.134,0.0,0.098,0.002
23/06/2023,06:06:08,0.137,0.0,0.101,0.003
23/06/2023,06:07:07,0.140,0.0,0.103,0.002
23/06/2023,06:08:07,0.144,0.0,0.105,0.002
23/06/2023,06:09:07,0.146,0.0,0.108,0.003
23/06/2023,06:10:07,0.150,0.0,0.11,0.002
23/06/2023,06:11:07,0.154,0.0,0.113,0.003
23/06/2023,06:12:07,0.157,0.0,0.115,0.002
23/06/2023,06:13:07,0.161,0.0,0.118,0.003
23/06/2023,06:14:07,0.163,0.0,0.121,0.003
23/06/2023,06:15:08,0.166,0.0,0.124,0.003
23/06/2023,06:16:07,0.168,0.0,0.126,0.002
23/06/2023,06:17:08,0.169,0.0,0.129,0.003
23/06/2023,06:18:07,0.172,0.0,0.132,0.003
23/06/2023,06:19:07,0.173,0.0,0.135,0.003
23/06/2023,06:20:07,0.174,0.0,0.138,0.003
23/06/2023,06:21:07,0.177,0.0,0.141,0.003
23/06/2023,06:22:07,0.180,0.0,0.144,0.003
23/06/2023,06:23:07,0.183,0.0,0.147,0.003
23/06/2023,06:24:07,0.186,0.0,0.15,0.003
23/06/2023,06:25:07,0.188,0.0,0.153,0.003
23/06/2023,06:26:07,0.188,0.0,0.156,0.003
23/06/2023,06:27:07,0.191,0.0,0.159,0.003
23/06/2023,06:28:07,0.198,0.0,0.162,0.003
23/06/2023,06:29:07,0.204,0.0,0.166,0.004
23/06/2023,06:30:07,0.214,0.0,0.169,0.003
23/06/2023,06:31:07,0.224,1.0,0.173,0.004
23/06/2023,06:32:07,0.234,1.0,0.177,0.004
23/06/2023,06:33:07,0.242,1.0,0.181,0.004
23/06/2023,06:34:07,0.246,1.0,0.185,0.004
23/06/2023,06:35:07,0.246,1.0,0.189,0.004
23/06/2023,06:36:07,0.244,1.0,0.193,0.004
23/06/2023,06:37:07,0.246,1.0,0.197,0.004
23/06/2023,06:38:06,0.244,1.0,0.201,0.004
23/06/2023,06:39:07,0.244,1.0,0.205,0.004
23/06/2023,06:40:07,0.251,1.0,0.209,0.004
23/06/2023,06:41:07,0.251,1.0,0.213,0.004
23/06/2023,06:42:08,0.256,1.0,0.218,0.005
23/06/2023,06:43:07,0.255,1.0,0.222,0.004
23/06/2023,06:44:08,0.253,1.0,0.226,0.004
23/06/2023,06:45:07,0.252,1.0,0.23,0.004
23/06/2023,06:46:08,0.251,1.0,0.235,0.005
23/06/2023,06:47:07,0.250,1.0,0.239,0.004
23/06/2023,06:48:07,0.251,1.0,0.243,0.004
23/06/2023,06:49:07,0.250,1.0,0.247,0.004
23/06/2023,06:50:07,0.247,1.0,0.251,0.004
23/06/2023,06:51:07,0.250,1.0,0.255,0.004
23/06/2023,06:52:07,0.254,1.0,0.26,0.005
23/06/2023,06:53:08,0.256,1.0,0.264,0.004
23/06/2023,06:54:07,0.254,1.0,0.268,0.004
23/06/2023,06:55:07,0.260,1.0,0.272,0.004
23/06/2023,06:56:07,0.266,1.0,0.277,0.005
23/06/2023,06:57:07,0.277,1.0,0.281,0.004
23/06/2023,06:58:07,0.291,1.0,0.286,0.005
23/06/2023,06:59:07,0.297,1.0,0.291,0.005
23/06/2023,07:00:37,0.310,1.0,0.298,0.007
23/06/2023,07:02:07,0.331,1.0,0.307,0.009
23/06/2023,07:03:08,0.328,1.0,0.312,0.005
23/06/2023,07:04:07,0.339,1.0,0.317,0.005
23/06/2023,07:05:08,0.345,1.0,0.323,0.006
23/06/2023,07:06:08,0.357,1.0,0.329,0.006
23/06/2023,07:07:07,0.351,1.0,0.335,0.006
23/06/2023,07:08:08,0.359,1.0,0.341,0.006
23/06/2023,07:09:07,0.363,1.0,0.347,0.006
23/06/2023,07:10:07,0.368,1.0,0.353,0.006
23/06/2023,07:11:07,0.372,1.0,0.359,0.006
23/06/2023,07:12:07,0.378,1.0,0.365,0.006
23/06/2023,07:13:07,0.373,1.0,0.372,0.007
23/06/2023,07:14:08,0.376,1.0,0.378,0.006
23/06/2023,07:15:07,0.381,1.0,0.384,0.006
23/06/2023,07:16:07,0.387,1.0,0.391,0.007
23/06/2023,07:17:07,0.390,1.0,0.397,0.006
23/06/2023,07:18:08,0.399,1.0,0.404,0.007
23/06/2023,07:19:07,0.402,1.0,0.41,0.006
23/06/2023,07:20:07,0.404,1.0,0.417,0.007
23/06/2023,07:21:08,0.407,1.0,0.424,0.007
23/06/2023,07:22:08,0.417,1.0,0.431,0.007
23/06/2023,07:23:07,0.429,1.0,0.438,0.007
23/06/2023,07:24:08,0.421,1.0,0.445,0.007
23/06/2023,07:25:07,0.414,1.0,0.452,0.007
23/06/2023,07:26:07,0.418,1.0,0.459,0.007
23/06/2023,07:27:07,0.420,1.0,0.466,0.007
23/06/2023,07:28:07,0.424,1.0,0.473,0.007
23/06/2023,07:29:08,0.427,1.0,0.48,0.007
23/06/2023,07:30:07,0.443,1.0,0.487,0.007
23/06/2023,07:31:07,0.449,1.0,0.494,0.007
23/06/2023,07:32:06,0.464,1.0,0.502,0.008
23/06/2023,07:33:29,0.480,1.0,0.513,0.011
23/06/2023,07:35:08,0.509,1.0,0.527,0.014
23/06/2023,07:36:07,0.523,1.0,0.535,0.008
23/06/2023,07:37:08,0.539,1.0,0.544,0.009
23/06/2023,07:38:07,0.528,1.0,0.553,0.009
23/06/2023,07:39:07,0.510,1.0,0.561,0.008
23/06/2023,07:40:07,0.498,1.0,0.57,0.009
23/06/2023,07:41:07,0.540,1.0,0.579,0.009
23/06/2023,07:42:07,0.529,1.0,0.587,0.008
23/06/2023,07:43:07,0.504,1.0,0.596,0.009
23/06/2023,07:44:08,0.501,1.0,0.604,0.008
23/06/2023,07:45:07,0.492,1.0,0.612,0.008
23/06/2023,07:46:07,0.489,1.0,0.621,0.009
23/06/2023,07:47:07,0.481,1.0,0.629,0.008
23/06/2023,07:48:07,0.489,1.0,0.637,0.008
23/06/2023,07:49:08,0.505,1.0,0.645,0.008
23/06/2023,07:50:07,0.523,1.0,0.653,0.008
23/06/2023,07:51:07,0.538,1.0,0.663,0.01
23/06/2023,07:52:07,0.546,1.0,0.672,0.009
23/06/2023,07:53:08,0.554,1.0,0.681,0.009
23/06/2023,07:54:07,0.562,1.0,0.69,0.009
23/06/2023,07:55:08,0.570,1.0,0.7,0.01
23/06/2023,07:56:07,0.567,1.0,0.709,0.009
23/06/2023,07:57:08,0.566,1.0,0.719,0.01
23/06/2023,07:58:06,0.568,1.0,0.728,0.009
23/06/2023,07:59:07,0.574,1.0,0.737,0.009
23/06/2023,08:00:07,0.577,1.0,0.747,0.01
23/06/2023,08:01:08,0.581,1.0,0.757,0.01
23/06/2023,08:02:08,0.577,1.0,0.766,0.009
23/06/2023,08:03:07,0.573,1.0,0.776,0.01
23/06/2023,08:04:08,0.569,1.0,0.785,0.009
23/06/2023,08:05:07,0.565,1.0,0.795,0.01
23/06/2023,08:06:08,0.559,1.0,0.804,0.009
23/06/2023,08:07:07,0.553,1.0,0.813,0.009
23/06/2023,08:08:08,0.555,1.0,0.823,0.01
23/06/2023,08:09:08,0.559,1.0,0.832,0.009
23/06/2023,08:10:07,0.565,1.0,0.841,0.009
23/06/2023,08:11:08,0.573,1.0,0.851,0.01
23/06/2023,08:12:07,0.578,1.0,0.86,0.009
23/06/2023,08:13:08,0.580,1.0,0.87,0.01
23/06/2023,08:14:07,0.584,1.0,0.88,0.01
23/06/2023,08:15:07,0.590,1.0,0.89,0.01
23/06/2023,08:16:07,0.598,1.0,0.9,0.01
23/06/2023,08:17:08,0.612,1.0,0.91,0.01
23/06/2023,08:18:07,0.622,1.0,0.92,0.01
23/06/2023,08:19:08,0.633,1.0,0.93,0.01
23/06/2023,08:20:07,0.645,1.0,0.941,0.011
23/06/2023,08:21:07,0.654,2.0,0.952,0.011
23/06/2023,08:22:08,0.657,2.0,0.963,0.011
23/06/2023,08:23:08,0.671,2.0,0.974,0.011
23/06/2023,08:24:07,0.689,2.0,0.985,0.011
23/06/2023,08:25:07,0.706,2.0,0.997,0.012
23/06/2023,08:26:08,0.725,2.0,1.009,0.012
23/06/2023,08:27:08,0.759,2.0,1.021,0.012
23/06/2023,08:28:07,0.828,2.0,1.034,0.013
23/06/2023,08:29:07,0.868,2.0,1.049,0.015
23/06/2023,08:30:08,0.869,2.0,1.064,0.015
23/06/2023,08:31:08,0.874,2.0,1.078,0.014
23/06/2023,08:32:07,0.882,2.0,1.092,0.014
23/06/2023,08:33:08,0.882,2.0,1.107,0.015
23/06/2023,08:34:08,0.935,2.0,1.123,0.016
23/06/2023,08:35:06,1.050,2.0,1.139,0.016
23/06/2023,08:36:07,1.103,3.0,1.157,0.018
23/06/2023,08:37:08,1.033,2.0,1.175,0.018
23/06/2023,08:38:08,1.051,2.0,1.192,0.017
23/06/2023,08:39:08,1.053,2.0,1.21,0.018
23/06/2023,08:40:07,1.017,2.0,1.227,0.017
23/06/2023,08:41:08,1.011,2.0,1.244,0.017
23/06/2023,08:42:07,0.991,2.0,1.26,0.016
23/06/2023,08:43:07,0.980,2.0,1.276,0.016
23/06/2023,08:44:07,0.935,2.0,1.292,0.016
23/06/2023,08:45:08,0.924,2.0,1.308,0.016
23/06/2023,08:46:08,0.890,2.0,1.323,0.015
23/06/2023,08:47:07,0.890,2.0,1.338,0.015
23/06/2023,08:48:08,0.856,2.0,1.353,0.015
23/06/2023,08:49:07,0.855,2.0,1.367,0.014
23/06/2023,08:50:07,0.857,2.0,1.381,0.014
23/06/2023,08:51:08,0.856,2.0,1.396,0.015
23/06/2023,08:52:07,0.868,2.0,1.41,0.014
23/06/2023,08:53:08,0.902,2.0,1.425,0.015
23/06/2023,08:54:07,0.926,2.0,1.44,0.015
23/06/2023,08:55:07,0.950,2.0,1.456,0.016
23/06/2023,08:56:08,0.972,2.0,1.472,0.016
23/06/2023,08:57:07,0.976,2.0,1.488,0.016
23/06/2023,08:58:08,0.980,2.0,1.504,0.016
23/06/2023,08:59:07,0.962,2.0,1.52,0.016
23/06/2023,09:00:08,0.957,2.0,1.536,0.016
23/06/2023,09:01:07,0.941,2.0,1.552,0.016
23/06/2023,09:02:07,0.936,2.0,1.567,0.015
23/06/2023,09:03:07,0.942,2.0,1.584,0.017
23/06/2023,09:04:08,0.932,2.0,1.599,0.015
23/06/2023,09:05:07,0.925,2.0,1.614,0.015
23/06/2023,09:06:07,0.935,2.0,1.63,0.016
23/06/2023,09:07:08,0.969,2.0,1.646,0.016
23/06/2023,09:08:08,0.990,2.0,1.662,0.016
23/06/2023,09:09:07,1.020,2.0,1.679,0.017
23/06/2023,09:10:07,1.005,2.0,1.696,0.017
23/06/2023,09:11:08,1.038,2.0,1.713,0.017
23/06/2023,09:12:07,1.057,2.0,1.73,0.017
23/06/2023,09:13:08,1.081,2.0,1.748,0.018
23/06/2023,09:14:08,1.080,2.0,1.766,0.018
23/06/2023,09:15:07,1.095,3.0,1.784,0.018
23/06/2023,09:16:08,1.152,3.0,1.803,0.019
23/06/2023,09:17:06,1.227,3.0,1.822,0.019
23/06/2023,09:18:07,1.308,3.0,1.844,0.022
23/06/2023,09:19:08,1.357,3.0,1.867,0.023
23/06/2023,09:20:07,1.336,3.0,1.889,0.022
23/06/2023,09:21:08,1.395,3.0,1.912,0.023
23/06/2023,09:22:07,1.456,3.0,1.935,0.023
23/06/2023,09:23:08,1.442,3.0,1.96,0.025
23/06/2023,09:24:07,1.429,3.0,1.983,0.023
23/06/2023,09:25:08,1.449,3.0,2.007,0.024
23/06/2023,09:26:07,1.463,3.0,2.031,0.024
23/06/2023,09:27:07,1.449,3.0,2.055,0.024
23/06/2023,09:28:07,1.394,3.0,2.079,0.024
23/06/2023,09:29:08,1.450,3.0,2.103,0.024
23/06/2023,09:30:07,1.455,3.0,2.127,0.024
23/06/2023,09:31:07,1.438,3.0,2.151,0.024
23/06/2023,09:32:08,1.489,3.0,2.175,0.024
23/06/2023,09:33:08,1.506,3.0,2.2,0.025
23/06/2023,09:34:07,1.479,3.0,2.225,0.025
23/06/2023,09:35:08,1.480,3.0,2.25,0.025
23/06/2023,09:36:07,1.504,3.0,2.274,0.024
23/06/2023,09:37:07,1.423,3.0,2.299,0.025
23/06/2023,09:38:07,1.404,3.0,2.323,0.024
23/06/2023,09:39:08,1.437,3.0,2.347,0.024
23/06/2023,09:40:09,1.398,3.0,2.371,0.024
23/06/2023,09:41:07,1.416,3.0,2.394,0.023
23/06/2023,09:42:09,1.432,3.0,2.418,0.024
23/06/2023,09:43:08,1.457,3.0,2.442,0.024
23/06/2023,09:44:07,1.338,3.0,2.465,0.023
23/06/2023,09:45:08,1.262,3.0,2.486,0.021
23/06/2023,09:46:07,1.279,3.0,2.507,0.021
23/06/2023,09:47:07,1.301,3.0,2.529,0.022
23/06/2023,09:48:07,1.350,3.0,2.551,0.022
23/06/2023,09:49:07,1.395,3.0,2.573,0.022
23/06/2023,09:50:07,1.392,3.0,2.597,0.024
23/06/2023,09:51:08,1.360,3.0,2.62,0.023
23/06/2023,09:52:08,1.343,3.0,2.643,0.023
23/06/2023,09:53:08,1.265,3.0,2.664,0.021
23/06/2023,09:54:08,1.280,3.0,2.685,0.021
23/06/2023,09:55:07,1.371,3.0,2.708,0.023
23/06/2023,09:56:07,1.496,3.0,2.731,0.023